Location: Austin
(30.3000°N, 97.7500°W)
Time: 00:43:27
(UTC-05:00)

Cosmos 1862 - Pass Details

Date: 15 May 2024
Orbit: 510 x 527 km, 82.5° (Epoch: 19 May)

Event Time Altitude Azimuth Distance (km) Brightness Sun altitude
Rises 21:00:21 0° 351° (N) 2,627 7.4 -9.0°
Reaches altitude 10° 21:02:30 10° 349° (N) 1,736 6.5 -9.4°
Maximum altitude 21:06:17 72° 266° (W) 540 3.4 -10.1°
Drops below altitude 10° 21:10:02 10° 181° (S) 1,721 5.6 -10.8°
Sets 21:12:09 0° 179° (S) 2,602 6.5 -11.2°
